Location: Julian California
(33.0790°N, 116.6010°W)
Time: 14:16:57
(UTC-08:00)

Meteor 2-9 Rocket - Pass Details

Date: 19 May 2017
Orbit: 792 x 895 km, 81.3° (Epoch: 17 December)

Event Time Altitude Azimuth Distance (km) Brightness Sun altitude
Rises 22:29:43 0° 348° (NNW) 3,328 8.3 -28.1°
Reaches altitude 10° 22:32:05 10° 345° (NNW) 2,406 7.4 -28.4°
Maximum altitude 22:37:27 64° 265° (W) 913 4.3 -29.0°
Enters shadow 22:37:31 64° 262° (W) 913 4.3 -29.0°
